{"data":{"norad_id":55604,"epoch":"2026-09-20T15:02:06.257184Z","epoch_age_seconds":89430,"freshness":"FRESH","line1":"1 55604U 23020AM  26263.62646131  .00000378  00000+0  23259-4 0  9997","line2":"2 55604  43.0037 318.5068 0001839 278.9977  81.0666 15.27576325199021","mean_motion":15.27576325,"eccentricity":0.0001839,"inclination_deg":43.0037,"raan_deg":318.5068,"arg_perigee_deg":278.9977,"mean_anomaly_deg":81.0666,"bstar":2.3259e-5,"rev_number":19902,"period_min":94.266975497935,"perigee_km":481.79832618704,"apogee_km":484.32187448054,"semimajor_km":6861.1971003338,"source":"CELESTRAK","updated_at":"2026-09-21T09:00:33.272698Z"}}